Regional Weather Roundup
Issued by NWS

Home | Current Version | Previous Version | Graphics & Text | Print | Product List | Glossary On
Versions: 1 2 3 4 5 6 7 8 9 10 11 12 13 14 15 16 17 18 19 20 21 22 23 24 25 26 27 28 29 30 31 32 33 34 35 36 37 38 39 40 41 42 43 44 45 46 47 48 49 50
000
ASUS43 KLOT 250808
RWRIL

ILLINOIS REGIONAL WEATHER ROUNDUP
NATIONAL WEATHER SERVICE CHICAGO/ROMEOVILLE IL
300 AM CDT FRI MAY 25 2018

NOTE: "FAIR" INDICATES FEW OR NO CLOUDS BELOW 12,000 FEET WITH NO
SIGNIFICANT WEATHER AND/OR OBSTRUCTIONS TO VISIBILITY.

* THESE STATIONS ARE NOT UNDER NWS QUALITY CONTROL. THEY ALSO MAY NOT
  REPORT WEATHER SUCH AS PRECIPITATION OR FOG.

ILZ001-002-007-009-015-016-024-250900-
NORTHWEST ILLINOIS

CITY           SKY/WX    TMP DP  RH WIND       PRES   REMARKS
MOLINE         FAIR      65  60  84 CALM      29.96F
STERLING*        N/A    N/A N/A N/A MISG        N/A
SAVANNA*       FAIR      65  61  88 SE3       29.96F
$$

ILZ003-004-008-010-011-017-018-250900-
NORTH CENTRAL ILLINOIS

CITY           SKY/WX    TMP DP  RH WIND       PRES   REMARKS
ROCKFORD       FAIR      63  57  81 CALM      29.99F
FREEPORT*      FAIR      66  58  76 S5        29.99F
ROCHELLE*      FAIR      63  58  84 CALM      30.00S
DE KALB*       FAIR      63  55  77 S7        30.01S
PERU*          FAIR      69  59  70 S7        29.99F
$$

ILZ005-006-012>014-019>023-250900-
NORTHEAST ILLINOIS

CITY           SKY/WX    TMP DP  RH WIND       PRES   REMARKS
CHICAGO-OHARE  FAIR      69  51  52 S7        29.99F
CHICAGO-MIDWAY FAIR      70  50  49 S6        29.99F
AURORA         FAIR      65  54  67 CALM      30.00S
LANSING*       FAIR      62  54  73 CALM      30.01S
JOLIET*        FAIR      64  55  71 SE3       30.00S
WAUKEGAN       FAIR      66  54  65 SW8       29.98F
DUPAGE AIRPORT FAIR      64  55  72 CALM      29.99F
KANKAKEE*      FAIR      68  51  54 S7        30.02F
WHEELING       FAIR      64  57  78 CALM      30.01S
MORRIS*        FAIR      66  54  66 S5        29.99S
ROMEOVILLE*    FAIR      64  53  66 S7        30.00F
NORTHERLY ISL    N/A     72  46  39 SW10        N/A
$$

LMZ740>746-250900-
SOUTHERN LAKE MICHIGAN

STATION/POSITION SKY/WX   TEMP    WIND        PRES    VSBY  WAVE
                          AIR SEA DIR/SP/G                  HT/PER
                          (F)     (DEG/KT/KT) (MB)    (MI)  (FT/S)
SOUTHERN BUOY              50 39  170/ 10/ 10 1015.9F         0
WILMETTE HARBOR            62 55  170/  6/  6   N/A           1
HARRISON CRIB              73     190/ 13/ 14   N/A
BURNHAM HARBOR             72     190/  8/  9   N/A
CALUMET HARBOR             69     190/  4/  5 1015.6F
BURNS HARBOR               69     190/  9/ 11 1016.6F
MICHIGAN CITY              71     160/ 10/ 12   N/A
MICHIGAN CITY 6N           63 60  200/  6/  6   N/A           0
ST. JOSEPH                 62 57  190/  6/  6 1016.2          0
$$

ILZ025>027-034>036-040-047-049-050-058-095>099-250900-
WEST-CENTRAL ILLINOIS

CITY           SKY/WX    TMP DP  RH WIND       PRES   REMARKS
QUINCY         PTCLDY    70  61  73 S7        29.98F
GALESBURG*     FAIR      68  59  73 S3        30.00S
MACOMB*        PTCLDY    71  60  68 S8        30.01S
JACKSONVILLE*  PTCLDY    72  59  64 S5        29.99F
PITTSFIELD*    PTCLDY    70  63  76 CALM      30.00F
$$

ILZ028>032-037-038-041>044-048-051>054-059>061-250900-
CENTRAL ILLINOIS

CITY           SKY/WX    TMP DP  RH WIND       PRES   REMARKS
PONTIAC        FAIR      65  57  75 CALM      30.02S
BLOOMINGTON    FAIR      66  54  65 S6        30.03F
DECATUR        FAIR      66  55  67 CALM      30.01F
PEORIA         FAIR      67  60  78 CALM      30.00F
LACON*         FAIR      67  59  73 CALM      29.99S
LINCOLN*       FAIR      65  57  74 CALM      30.00F
SPRINGFIELD    FAIR      68  59  73 S6        30.00F
TAYLORVILLE    FAIR      67  57  71 S5        30.01F
$$

ILZ033-039-045-046-055>057-062-063-250900-
EAST-CENTRAL ILLINOIS

CITY           SKY/WX    TMP DP  RH WIND       PRES   REMARKS
CHAMPAIGN      FAIR      67  55  65 S7        30.02F
DANVILLE*      FAIR      64  54  71 CALM      30.00F
RANTOUL*       FAIR      66  57  72 CALM      30.02F
MATTOON        FAIR      69  57  65 S7        30.01
PARIS*         FAIR      63  56  79 CALM      30.04S
$$

ILZ079-100>102-250900-
SOUTHWEST ILLINOIS

CITY           SKY/WX    TMP DP  RH WIND       PRES   REMARKS
ALTON          CLEAR     64  63  97 CALM      30.01S
BELLEVILLE     CLEAR     66  64  92 CALM      29.99F
CAHOKIA*       CLEAR     67  62  84 CALM      30.00S
SPARTA*        CLEAR     67  66  95 CALM      30.02S
$$

ILZ064>066-069>071-074>076-080>082-084>086-088>090-092>094-250900-
SOUTH-CENTRAL ILLINOIS

CITY           SKY/WX    TMP DP  RH WIND       PRES   REMARKS
CARBONDALE     FAIR      65  63  93 CALM      30.01F
CAIRO*         FAIR      68  67  98 CALM      30.00F
EFFINGHAM*     FAIR      63  58  83 E5        30.03F
MARION         FAIR      65  63  96 CALM      30.02F
MT. VERNON     FAIR      56  56 100 CALM      30.02F
CENTRALIA*     CLEAR     65  63  91 CALM      30.01F
SALEM*         FAIR      66  59  78 CALM      30.01F
METROPOLIS*    FAIR      66  65  94 CALM      30.02S
$$

ILZ067-068-072-073-078-083-087-091-250900-
SOUTHEAST ILLINOIS

CITY           SKY/WX    TMP DP  RH WIND       PRES   REMARKS
LAWRENCEVILLE  FAIR      66  57  72 CALM      30.02F
FLORA*         FAIR      64  59  86 CALM      30.03S
FAIRFIELD*     FAIR      62  58  87 CALM      30.01F
HARRISBURG*    FAIR      63  62  96 CALM      30.02F
ROBINSON*      FAIR      59  58  94 CALM      30.04S
CARMI*         FAIR      62  61  95 CALM      30.02S
$$

ABBREVIATIONS USED IN REMARKS
   TC - TEMPERATURE IN CELSIUS
  WCI - WIND CHILL INDEX
   HX - HEAT INDEX
  VSB - VISIBILITY
$$




USA.gov is the U.S. government's official web portal to all federal, state and local government web resources and services.